Hourly Weather Soma Bey

Today, 22 September, Tuesday

Time Temperature Precipitation Wind Pressure Humidity
00:00 +29°C° 0 mm 2 mps 745 mmHg 49%
01:00 +28°C° 0 mm 2 mps 745 mmHg 48%
02:00 +28°C° 0 mm 2 mps 745 mmHg 48%
03:00 +28°C° 0 mm 3 mps 745 mmHg 49%
04:00 +28°C° 0 mm 3 mps 745 mmHg 49%
05:00 +27°C° 0 mm 4 mps 746 mmHg 50%
06:00 +30°C° 0 mm 5 mps 746 mmHg 44%
07:00 +33°C° 0 mm 5 mps 746 mmHg 38%
08:00 +36°C° 0 mm 5 mps 746 mmHg 31%
09:00 +39°C° 0 mm 6 mps 746 mmHg 28%
10:00 +41°C° 0 mm 6 mps 747 mmHg 25%
11:00 +44°C° 0 mm 7 mps 747 mmHg 22%
12:00 +43°C° 0 mm 7 mps 746 mmHg 24%
13:00 +43°C° 0 mm 7 mps 746 mmHg 25%
14:00 +43°C° 0 mm 7 mps 745 mmHg 27%
15:00 +41°C° 0 mm 6 mps 745 mmHg 28%
16:00 +40°C° 0 mm 5 mps 745 mmHg 30%
17:00 +39°C° 0 mm 5 mps 745 mmHg 31%
18:00 +36°C° 0 mm 4 mps 745 mmHg 35%
19:00 +34°C° 0 mm 4 mps 745 mmHg 38%
20:00 +31°C° 0 mm 3 mps 746 mmHg 42%
21:00 +32°C° 0 mm 4 mps 746 mmHg 40%
22:00 +32°C° 0 mm 4 mps 746 mmHg 38%
23:00 +30°C° 0 mm 4 mps 746 mmHg 36%

Tomorrow, 23 September, Wednesday

Time Temperature Precipitation Wind Pressure Humidity
00:00 +30°C° 0 mm 5 mps 746 mmHg 39%
01:00 +29°C° 0 mm 5 mps 746 mmHg 41%
02:00 +29°C° 0 mm 5 mps 745 mmHg 43%
03:00 +29°C° 0 mm 6 mps 745 mmHg 43%
04:00 +28°C° 0 mm 6 mps 746 mmHg 42%
05:00 +28°C° 0 mm 6 mps 746 mmHg 42%
06:00 +30°C° 0 mm 6 mps 746 mmHg 38%
07:00 +33°C° 0 mm 6 mps 746 mmHg 35%
08:00 +35°C° 0 mm 6 mps 746 mmHg 31%
09:00 +38°C° 0 mm 7 mps 746 mmHg 28%
10:00 +41°C° 0 mm 7 mps 746 mmHg 25%
11:00 +44°C° 0 mm 8 mps 747 mmHg 21%
12:00 +43°C° 0 mm 8 mps 746 mmHg 24%
13:00 +43°C° 0 mm 9 mps 745 mmHg 27%
14:00 +43°C° 0 mm 9 mps 744 mmHg 30%
15:00 +41°C° 0 mm 8 mps 744 mmHg 31%
16:00 +40°C° 0 mm 7 mps 744 mmHg 31%
17:00 +39°C° 0 mm 6 mps 744 mmHg 32%
18:00 +36°C° 0 mm 5 mps 744 mmHg 36%
19:00 +34°C° 0 mm 5 mps 745 mmHg 39%
20:00 +32°C° 0 mm 4 mps 745 mmHg 43%
21:00 +32°C° 0 mm 4 mps 745 mmHg 43%
22:00 +32°C° 0 mm 4 mps 745 mmHg 43%
23:00 +30°C° 0 mm 4 mps 745 mmHg 43%

Day after tomorrow, 24 September, Thursday

Time Temperature Precipitation Wind Pressure Humidity
00:00 +30°C° 0 mm 5 mps 745 mmHg 45%
01:00 +29°C° 0 mm 5 mps 745 mmHg 46%
02:00 +29°C° 0 mm 5 mps 745 mmHg 47%
03:00 +28°C° 0 mm 6 mps 745 mmHg 51%
04:00 +27°C° 0 mm 6 mps 745 mmHg 55%
05:00 +27°C° 0 mm 6 mps 745 mmHg 58%
06:00 +29°C° 0 mm 6 mps 745 mmHg 52%
07:00 +32°C° 0 mm 7 mps 746 mmHg 46%
08:00 +34°C° 0 mm 7 mps 746 mmHg 40%
09:00 +36°C° 0 mm 7 mps 746 mmHg 37%
10:00 +39°C° 0 mm 7 mps 746 mmHg 34%
11:00 +40°C° 0 mm 8 mps 746 mmHg 30%
12:00 +40°C° 0 mm 7 mps 745 mmHg 31%
13:00 +41°C° 0 mm 7 mps 745 mmHg 31%
14:00 +41°C° 0 mm 7 mps 744 mmHg 31%
15:00 +40°C° 0 mm 6 mps 744 mmHg 33%
16:00 +39°C° 0 mm 6 mps 744 mmHg 35%
17:00 +37°C° 0 mm 5 mps 744 mmHg 37%
18:00 +35°C° 0 mm 5 mps 745 mmHg 42%
19:00 +33°C° 0 mm 4 mps 745 mmHg 46%
20:00 +30°C° 0 mm 4 mps 745 mmHg 50%
21:00 +29°C° 0 mm 3 mps 745 mmHg 51%
22:00 +29°C° 0 mm 3 mps 745 mmHg 51%
23:00 +29°C° 0 mm 3 mps 745 mmHg 52%

25 September, Friday

Time Temperature Precipitation Wind Pressure Humidity
00:00 +28°C° 0 mm 4 mps 745 mmHg 50%
01:00 +28°C° 0 mm 5 mps 745 mmHg 48%
02:00 +28°C° 0 mm 6 mps 744 mmHg 46%
03:00 +28°C° 0 mm 6 mps 745 mmHg 45%
04:00 +28°C° 0 mm 6 mps 745 mmHg 44%
05:00 +27°C° 0 mm 7 mps 745 mmHg 44%
06:00 +29°C° 0 mm 6 mps 745 mmHg 39%
07:00 +32°C° 0 mm 6 mps 745 mmHg 34%
08:00 +34°C° 0 mm 5 mps 746 mmHg 29%
09:00 +35°C° 0 mm 5 mps 746 mmHg 26%
10:00 +38°C° 0 mm 6 mps 746 mmHg 24%
11:00 +40°C° 0 mm 6 mps 746 mmHg 21%
12:00 +40°C° 0 mm 6 mps 745 mmHg 22%
13:00 +40°C° 0 mm 6 mps 744 mmHg 24%
14:00 +40°C° 0 mm 6 mps 744 mmHg 25%
15:00 +39°C° 0 mm 6 mps 744 mmHg 26%
16:00 +38°C° 0 mm 6 mps 744 mmHg 27%
17:00 +36°C° 0 mm 6 mps 744 mmHg 28%
18:00 +34°C° 0 mm 5 mps 744 mmHg 30%
19:00 +32°C° 0 mm 4 mps 744 mmHg 33%
20:00 +29°C° 0 mm 3 mps 745 mmHg 35%
21:00 +30°C° 0 mm 4 mps 745 mmHg 32%
22:00 +30°C° 0 mm 5 mps 745 mmHg 30%
23:00 +30°C° 0 mm 5 mps 745 mmHg 28%

26 September, Saturday

Time Temperature Precipitation Wind Pressure Humidity
00:00 +30°C° 0 mm 5 mps 744 mmHg 31%
01:00 +29°C° 0 mm 5 mps 744 mmHg 35%
02:00 +28°C° 0 mm 5 mps 744 mmHg 38%
03:00 +27°C° 0 mm 5 mps 744 mmHg 40%
04:00 +27°C° 0 mm 5 mps 744 mmHg 43%
05:00 +26°C° 0 mm 4 mps 744 mmHg 45%
06:00 +28°C° 0 mm 5 mps 745 mmHg 41%
07:00 +32°C° 0 mm 5 mps 745 mmHg 36%
08:00 +34°C° 0 mm 5 mps 745 mmHg 31%
09:00 +35°C° 0 mm 5 mps 745 mmHg 30%
10:00 +38°C° 0 mm 6 mps 745 mmHg 28%
11:00 +39°C° 0 mm 6 mps 745 mmHg 26%
12:00 +39°C° 0 mm 6 mps 744 mmHg 26%
13:00 +40°C° 0 mm 6 mps 744 mmHg 25%
14:00 +40°C° 0 mm 6 mps 743 mmHg 25%
15:00 +38°C° 0 mm 6 mps 743 mmHg 28%
16:00 +36°C° 0 mm 5 mps 743 mmHg 30%
17:00 +35°C° 0 mm 5 mps 743 mmHg 33%
18:00 +32°C° 0 mm 4 mps 744 mmHg 38%
19:00 +29°C° 0 mm 3 mps 744 mmHg 43%
20:00 +27°C° 0 mm 2 mps 745 mmHg 49%
21:00 +27°C° 0 mm 2 mps 745 mmHg 45%
22:00 +27°C° 0 mm 2 mps 745 mmHg 41%
23:00 +27°C° 0 mm 2 mps 745 mmHg 37%

27 September, Sunday

Time Temperature Precipitation Wind Pressure Humidity
00:00 +26°C° 0 mm 2 mps 745 mmHg 36%
01:00 +26°C° 0 mm 3 mps 745 mmHg 35%
02:00 +26°C° 0 mm 3 mps 745 mmHg 35%
03:00 +26°C° 0 mm 3 mps 745 mmHg 36%
04:00 +25°C° 0 mm 4 mps 745 mmHg 37%
05:00 +25°C° 0 mm 5 mps 745 mmHg 39%
06:00 +28°C° 0 mm 5 mps 745 mmHg 36%
07:00 +30°C° 0 mm 5 mps 746 mmHg 33%
08:00 +33°C° 0 mm 5 mps 746 mmHg 31%
09:00 +35°C° 0 mm 6 mps 746 mmHg 29%
10:00 +36°C° 0 mm 6 mps 746 mmHg 27%
11:00 +38°C° 0 mm 7 mps 746 mmHg 24%
12:00 +39°C° 0 mm 6 mps 745 mmHg 25%
13:00 +39°C° 0 mm 6 mps 745 mmHg 26%
14:00 +39°C° 0 mm 5 mps 744 mmHg 27%
15:00 +37°C° 0 mm 5 mps 744 mmHg 30%
16:00 +36°C° 0 mm 4 mps 744 mmHg 32%
17:00 +35°C° 0 mm 3 mps 744 mmHg 35%
18:00 +33°C° 0 mm 3 mps 744 mmHg 41%
19:00 +29°C° 0 mm 2 mps 745 mmHg 47%
20:00 +27°C° 0 mm 2 mps 745 mmHg 53%
21:00 +27°C° 0 mm 2 mps 745 mmHg 51%
22:00 +27°C° 0 mm 2 mps 745 mmHg 49%
23:00 +27°C° 0 mm 1 mps 746 mmHg 46%
Show more